Location: Unspecified
(64.0373°N, 0.0000°E)
Time: 03:08:54
(UTC+00:00)

NOAA 16 DEB - Visible Passes

Search period start: 04 April 2026 00:00
Search period end: 14 April 2026 00:00
Orbit: 771 x 797 km, 98.8° (Epoch: 29 March)

Date Brightness Start Highest point End Pass type
(mag) Time Alt. Az. Time Alt. Az. Time Alt. Az.
4 Apr ? 01:24:28 23° WSW 01:25:45 25° W 01:29:58 10° NNW visible
4 Apr ? 19:55:12 10° NE 19:57:45 14° NNE 20:00:18 10° NNW visible
4 Apr ? 21:31:34 10° E 21:35:40 25° NE 21:39:46 10° NNW visible
4 Apr ? 23:12:01 32° SE 23:14:20 66° ENE 23:19:27 10° NNW visible
5 Apr ? 00:52:36 31° SW 00:54:01 37° W 00:58:48 10° NNW visible
5 Apr ? 02:34:19 10° W 02:34:56 10° WNW 02:35:34 10° WNW visible
5 Apr ? 21:01:03 10° ENE 21:04:40 20° NNE 21:08:19 10° NNW visible
5 Apr ? 22:40:09 22° ESE 22:43:04 46° NE 22:47:59 10° NNW visible
6 Apr ? 00:20:43 38° SSW 00:22:25 55° WSW 00:27:30 10° NNW visible
6 Apr ? 02:01:18 14° WSW 02:02:56 16° W 02:06:02 10° NW visible
6 Apr ? 20:30:39 10° ENE 20:33:45 16° NNE 20:36:53 10° NNW visible
6 Apr ? 22:08:16 15° ESE 22:11:54 34° NE 22:16:30 10° NNW visible
6 Apr ? 23:48:51 37° SSE 23:50:55 82° WSW 23:56:07 10° NNW visible
7 Apr ? 01:29:25 20° WSW 01:31:03 24° W 01:35:10 10° NW visible
7 Apr ? 20:00:15 10° NE 20:02:53 14° NNE 20:05:31 10° NNW visible
7 Apr ? 21:36:39 10° E 21:40:49 26° NE 21:45:00 10° NNW visible
7 Apr ? 23:16:57 30° SE 23:19:32 70° ENE 23:24:40 10° NNW visible
8 Apr ? 00:57:32 27° SW 00:59:17 35° W 01:04:00 10° NNW visible
8 Apr ? 21:06:06 10° E 21:09:48 21° NNE 21:13:31 10° NNW visible
8 Apr ? 22:45:04 21° ESE 22:48:14 49° NE 22:53:12 10° NNW visible
9 Apr ? 00:25:39 33° SSW 00:27:39 52° WSW 00:32:42 10° NNW visible
9 Apr ? 02:06:13 12° WSW 02:08:13 15° W 02:11:07 10° NW visible
9 Apr ? 20:35:39 10° ENE 20:38:51 17° NNE 20:42:04 10° NNW visible
9 Apr ? 22:13:10 14° ESE 22:17:02 35° NE 22:21:42 10° NNW visible
9 Apr ? 23:53:45 33° S 23:56:06 77° WSW 00:01:18 10° NNW visible
10 Apr ? 01:34:19 18° WSW 01:36:17 22° W 01:40:18 10° NW visible
10 Apr ? 21:41:41 10° E 21:45:55 27° NE 21:50:11 10° NNW visible
10 Apr ? 23:21:50 27° SE 23:24:41 74° ENE 23:29:51 10° NNW visible
11 Apr ? 01:02:25 24° SW 01:04:29 33° W 01:09:09 10° NNW visible
11 Apr ? 21:11:05 10° E 21:14:52 21° NE 21:18:41 10° NNW visible
11 Apr ? 22:49:55 20° SE 22:53:20 51° ENE 22:58:21 10° NNW visible
12 Apr ? 00:30:30 29° SSW 00:32:48 49° W 00:37:49 10° NNW visible
12 Apr ? 02:11:05 11° WSW 02:13:26 14° WNW 02:16:07 10° NW visible
12 Apr ? 20:40:36 10° ENE 20:43:53 17° NNE 20:47:12 10° NNW visible
12 Apr ? 22:18:00 13° ESE 22:22:06 37° NE 22:26:49 10° NNW visible
12 Apr ? 23:58:35 29° S 00:01:14 73° WSW 00:06:25 10° NNW visible
13 Apr ? 01:39:09 16° WSW 01:41:27 21° W 01:45:21 10° NW visible
13 Apr ? 21:46:39 10° E 21:50:57 28° NE 21:55:18 10° NNW visible
13 Apr ? 23:26:39 25° SSE 23:29:45 78° ENE 23:34:57 10° NNW visible
